START_TIME,STEP,MOV.,H8,t_acc.,H43,t_acc.,M25,t_acc.,H9,t_acc.
1981-08-24 18:00:30.530 ,1,0,0.,12.0,0.,12.0,0.,12.0,0.,12.0
1981-08-24 18:00:42.530 ,1,0,0.,12.0,0.,12.0,0.,12.0,0.,12.0
1981-08-24 18:00:54.530 ,2,0,0.,12.0,0.,12.0,0.,12.0,0.,12.0
1981-08-24 18:01:06.530 ,2,0,0.,12.0,0.,12.0,0.,12.0,0.,12.0
1981-08-24 18:01:18.530 ,3,0,0.,12.0,0.,12.0,0.,12.0,0.,12.0
1981-08-24 18:01:30.530 ,3,0,0.,12.0,0.,12.0,0.,12.0,0.,12.0
1981-08-24 18:01:42.530 ,4,0,0.,12.0,0.,12.0,0.,12.0,0.,12.0
1981-08-24 18:01:54.530 ,4,0,0.,12.0,0.,12.0,0.,12.0,0.,12.0
1981-08-24 18:02:06.530 ,5,0,0.,12.0,0.,12.0,0.,12.0,0.,12.0
1981-08-24 18:02:18.530 ,5,0,0.,12.0,0.,12.0,0.,12.0,0.,12.0
1981-08-24 18:02:30.530 ,6,0,0.,12.0,0.,12.0,0.,12.0,0.,12.0
1981-08-24 18:02:42.530 ,6,0,0.,12.0,0.,12.0,0.,12.0,0.,12.0
1981-08-24 18:02:54.530 ,7,0,0.,12.0,0.,12.0,0.,12.0,0.,12.0
1981-08-24 18:03:06.530 ,7,0,0.,12.0,0.,12.0,0.,12.0,0.,12.0
1981-08-24 18:03:18.530 ,7,0,0.,12.0,0.,12.0,0.,12.0,0.,12.0
1981-08-24 18:03:30.530 ,7,0,0.,12.0,0.,12.0,0.,12.0,0.,12.0
1981-08-24 18:03:42.530 ,7,0,0.,12.0,0.,12.0,0.,12.0,0.,12.0
1981-08-24 18:03:54.530 ,7,0,0.,12.0,0.,12.0,0.,12.0,0.,12.0
1981-08-24 18:04:06.530 ,6,0,0.,12.0,0.,12.0,0.,12.0,0.,12.0
1981-08-24 18:04:18.530 ,6,0,0.,12.0,0.,12.0,0.,12.0,0.,12.0
1981-08-24 18:04:30.530 ,6,0,0.,12.0,0.,12.0,0.,12.0,0.,12.0
1981-08-24 18:04:42.530 ,6,0,0.,12.0,0.,12.0,0.,12.0,0.,12.0
1981-08-24 18:04:54.530 ,5,0,0.,12.0,0.,12.0,0.,12.0,0.,12.0
1981-08-24 18:05:06.530 ,5,0,0.,12.0,0.,12.0,0.,12.0,0.,12.0
1981-08-24 18:05:18.530 ,5,0,0.,12.0,0.,12.0,0.,12.0,0.,12.0
1981-08-24 18:05:30.530 ,5,0,0.,12.0,0.,12.0,0.,12.0,0.,12.0
1981-08-24 18:05:42.530 ,4,0,0.,12.0,0.,12.0,0.,12.0,0.,12.0
1981-08-24 18:05:54.530 ,4,0,0.,12.0,0.,12.0,0.,12.0,0.,12.0
1981-08-24 18:06:06.530 ,4,0,0.,12.0,0.,12.0,0.,12.0,0.,12.0
1981-08-24 18:06:18.530 ,4,0,0.,12.0,0.,12.0,0.,12.0,0.,12.0
1981-08-24 18:06:30.530 ,3,0,0.,12.0,0.,12.0,0.,12.0,0.,12.0
1981-08-24 18:06:42.530 ,3,0,0.,12.0,0.,12.0,0.,12.0,0.,12.0
1981-08-24 18:06:54.530 ,3,0,0.,12.0,0.,12.0,0.,12.0,0.,12.0
1981-08-24 18:07:06.530 ,3,0,0.,12.0,0.,12.0,0.,12.0,0.,12.0
1981-08-24 18:07:18.530 ,2,0,0.,12.0,0.,12.0,0.,12.0,0.,12.0
1981-08-24 18:07:30.530 ,2,0,0.,12.0,0.,12.0,0.,12.0,0.,12.0
1981-08-24 18:07:42.530 ,2,0,0.,12.0,0.,12.0,0.,12.0,0.,12.0
1981-08-24 18:07:54.530 ,2,0,0.,12.0,0.,12.0,0.,12.0,0.,12.0
1981-08-24 18:08:06.530 ,1,0,0.,12.0,0.,12.0,0.,12.0,0.,12.0
1981-08-24 18:08:18.530 ,1,0,0.,12.0,0.,12.0,0.,12.0,0.,12.0
1981-08-24 18:08:30.530 ,1,0,0.,12.0,0.,12.0,0.,12.0,0.,12.0
1981-08-24 18:08:42.530 ,1,0,0.,12.0,0.,12.0,0.,12.0,0.,12.0
1981-08-24 18:08:54.530 ,0,0,0.,12.0,0.,12.0,0.,12.0,0.,12.0
1981-08-24 18:09:06.530 ,0,0,0.,12.0,0.,12.0,0.,12.0,0.,12.0
1981-08-24 18:09:18.530 ,0,0,0.,12.0,0.,12.0,0.,12.0,0.,12.0
1981-08-24 18:09:30.530 ,0,0,0.,12.0,0.,12.0,0.,12.0,0.,12.0
1981-08-24 18:09:42.530 ,0,0,0.,12.0,0.,12.0,0.,12.0,0.,12.0
1981-08-24 18:09:54.530 ,0,0,0.,12.0,0.,12.0,0.,12.0,0.,12.0
1981-08-24 18:10:06.530 ,0,0,0.,12.0,0.,12.0,0.,12.0,0.,12.0
1981-08-24 18:10:18.530 ,0,0,0.,12.0,0.,12.0,0.,12.0,0.,12.0
1981-08-24 18:10:30.530 ,1,0,0.,12.0,0.,12.0,0.,12.0,0.,12.0
1981-08-24 18:10:42.530 ,1,0,0.,12.0,0.,12.0,0.,12.0,0.,12.0
1981-08-24 18:10:54.530 ,1,0,0.,12.0,0.,12.0,0.,12.0,0.,12.0
1981-08-24 18:11:06.530 ,1,0,0.,12.0,0.,12.0,0.,12.0,0.,12.0
1981-08-24 18:11:18.530 ,2,0,0.,12.0,0.,12.0,0.,12.0,0.,12.0
1981-08-24 18:11:30.530 ,2,0,0.,12.0,0.,12.0,0.,12.0,0.,12.0
1981-08-24 18:11:42.530 ,2,0,0.,12.0,0.,12.0,0.,12.0,0.,12.0
1981-08-24 18:11:54.530 ,2,0,0.,12.0,0.,12.0,0.,12.0,0.,12.0
1981-08-24 18:12:06.530 ,3,0,0.,12.0,0.,12.0,0.,12.0,0.,12.0
1981-08-24 18:12:18.530 ,3,0,0.,12.0,0.,12.0,0.,12.0,0.,12.0
1981-08-24 18:12:30.530 ,3,0,0.,12.0,0.,12.0,0.,12.0,0.,12.0
1981-08-24 18:12:42.530 ,3,0,0.,12.0,0.,12.0,0.,12.0,0.,12.0
1981-08-24 18:12:54.530 ,4,0,0.,12.0,0.,12.0,0.,12.0,0.,12.0
1981-08-24 18:13:06.530 ,4,0,0.,12.0,0.,12.0,0.,12.0,0.,12.0
1981-08-24 18:13:18.530 ,4,0,0.,12.0,0.,12.0,0.,12.0,0.,12.0
1981-08-24 18:13:30.530 ,4,0,0.,12.0,0.,12.0,0.,12.0,0.,12.0
1981-08-24 18:13:42.530 ,5,0,0.,12.0,0.,12.0,0.,12.0,0.,12.0
1981-08-24 18:13:54.530 ,5,0,0.,12.0,0.,12.0,0.,12.0,0.,12.0
1981-08-24 18:14:06.530 ,5,0,0.,12.0,0.,12.0,0.,12.0,0.,12.0
1981-08-24 18:14:18.530 ,5,0,0.,12.0,0.,12.0,0.,12.0,0.,12.0
1981-08-24 18:14:30.530 ,6,0,0.,12.0,0.,12.0,0.,12.0,0.,12.0
1981-08-24 18:14:42.530 ,6,0,0.,12.0,0.,12.0,0.,12.0,0.,12.0
1981-08-24 18:14:54.530 ,6,0,0.,12.0,0.,12.0,0.,12.0,0.,12.0
1981-08-24 18:15:06.530 ,6,0,0.,12.0,0.,12.0,0.,12.0,0.,12.0
1981-08-24 18:15:18.530 ,7,0,0.,12.0,0.,12.0,0.,12.0,0.,12.0
1981-08-24 18:15:30.530 ,7,0,0.,12.0,0.,12.0,0.,12.0,0.,12.0
1981-08-24 18:15:42.530 ,7,0,0.,12.0,0.,12.0,0.,12.0,0.,12.0
1981-08-24 18:15:54.530 ,7,0,0.,12.0,0.,12.0,0.,12.0,0.,12.0
1981-08-24 18:16:06.530 ,7,0,0.,12.0,0.,12.0,0.,12.0,0.,12.0
1981-08-24 18:16:18.530 ,7,0,0.,12.0,0.,12.0,0.,12.0,0.,12.0
1981-08-24 18:16:30.530 ,6,0,0.,12.0,0.,12.0,0.,12.0,0.,12.0
1981-08-24 18:16:42.530 ,6,0,0.,12.0,0.,12.0,0.,12.0,0.,12.0
1981-08-24 18:16:54.530 ,5,0,0.,12.0,0.,12.0,0.,12.0,0.,12.0
1981-08-24 18:17:06.530 ,5,0,0.,12.0,0.,12.0,0.,12.0,0.,12.0
1981-08-24 18:17:18.530 ,4,0,0.,12.0,0.,12.0,0.,12.0,0.,12.0
1981-08-24 18:17:30.530 ,4,0,0.,12.0,0.,12.0,0.,12.0,0.,12.0
1981-08-24 18:17:42.530 ,3,0,0.,12.0,0.,12.0,0.,12.0,0.,12.0
1981-08-24 18:17:54.530 ,3,0,0.,12.0,0.,12.0,0.,12.0,0.,12.0
1981-08-24 18:18:06.530 ,2,0,0.,12.0,0.,12.0,0.,12.0,0.,12.0
1981-08-24 18:18:18.530 ,2,0,0.,12.0,0.,12.0,0.,12.0,0.,12.0
1981-08-24 18:18:30.530 ,1,0,0.,12.0,0.,12.0,0.,12.0,0.,12.0
1981-08-24 18:18:42.530 ,1,0,0.,12.0,0.,12.0,0.,12.0,0.,12.0
1981-08-24 18:18:54.530 ,0,0,0.,12.0,0.,12.0,0.,12.0,0.,12.0
1981-08-24 18:19:06.530 ,0,0,0.,12.0,0.,12.0,0.,12.0,0.,12.0
1981-08-24 18:19:18.530 ,0,0,0.,12.0,0.,12.0,0.,12.0,0.,12.0
1981-08-24 18:19:30.530 ,0,0,0.,12.0,0.,12.0,0.,12.0,0.,12.0
1981-08-24 18:19:42.530 ,1,0,0.,12.0,0.,12.0,0.,12.0,0.,12.0
1981-08-24 18:19:54.530 ,1,0,0.,12.0,0.,12.0,0.,12.0,0.,12.0
1981-08-24 18:20:06.530 ,2,0,0.,12.0,0.,12.0,0.,12.0,0.,12.0
1981-08-24 18:20:18.530 ,2,0,0.,12.0,0.,12.0,0.,12.0,0.,12.0
1981-08-24 18:20:30.530 ,3,0,0.,12.0,0.,12.0,0.,12.0,0.,12.0
1981-08-24 18:20:42.530 ,3,0,0.,12.0,0.,12.0,0.,12.0,0.,12.0
1981-08-24 18:20:54.530 ,4,0,0.,12.0,0.,12.0,0.,12.0,0.,12.0
1981-08-24 18:21:06.530 ,4,0,0.,12.0,0.,12.0,0.,12.0,0.,12.0
1981-08-24 18:21:18.530 ,5,0,0.,12.0,0.,12.0,0.,12.0,0.,12.0
1981-08-24 18:21:30.530 ,5,0,0.,12.0,0.,12.0,0.,12.0,0.,12.0
1981-08-24 18:21:42.530 ,6,0,0.,12.0,0.,12.0,0.,12.0,0.,12.0
1981-08-24 18:21:54.530 ,6,0,0.,12.0,0.,12.0,0.,12.0,0.,12.0
1981-08-24 18:22:06.530 ,7,0,0.,12.0,0.,12.0,0.,12.0,0.,12.0
1981-08-24 18:22:18.530 ,7,0,0.,12.0,0.,12.0,0.,12.0,0.,12.0
1981-08-24 18:22:30.530 ,7,0,0.,12.0,0.,12.0,0.,12.0,0.,12.0
1981-08-24 18:22:42.530 ,7,0,0.,12.0,0.,12.0,0.,12.0,0.,12.0
1981-08-24 18:22:54.530 ,7,0,0.,12.0,0.,12.0,0.,12.0,0.,12.0
1981-08-24 18:23:06.530 ,7,0,0.,12.0,0.,12.0,0.,12.0,0.,12.0
1981-08-24 18:23:18.530 ,6,0,0.,12.0,0.,12.0,0.,12.0,0.,12.0
1981-08-24 18:23:30.530 ,6,0,0.,12.0,0.,12.0,0.,12.0,0.,12.0
1981-08-24 18:23:42.530 ,6,0,0.,12.0,0.,12.0,0.,12.0,0.,12.0
1981-08-24 18:23:54.530 ,6,0,0.,12.0,0.,12.0,0.,12.0,0.,12.0
1981-08-24 18:24:06.530 ,5,0,0.,12.0,0.,12.0,0.,12.0,0.,12.0
1981-08-24 18:24:18.530 ,5,0,0.,12.0,0.,12.0,0.,12.0,0.,12.0
1981-08-24 18:24:30.530 ,5,0,0.,12.0,0.,12.0,0.,12.0,0.,12.0
1981-08-24 18:24:42.530 ,5,0,0.,12.0,0.,12.0,0.,12.0,0.,12.0
1981-08-24 18:24:54.530 ,4,0,0.,12.0,0.,12.0,0.,12.0,0.,12.0
1981-08-24 18:25:06.530 ,4,0,0.,12.0,0.,12.0,0.,12.0,0.,12.0
1981-08-24 18:25:18.530 ,4,0,0.,12.0,0.,12.0,0.,12.0,0.,12.0
1981-08-24 18:25:30.530 ,4,0,0.,12.0,0.,12.0,0.,12.0,0.,12.0
1981-08-24 18:25:42.530 ,3,0,0.,12.0,0.,12.0,0.,12.0,0.,12.0
1981-08-24 18:25:54.530 ,3,0,0.,12.0,0.,12.0,0.,12.0,0.,12.0
1981-08-24 18:26:06.530 ,3,0,0.,12.0,0.,12.0,0.,12.0,0.,12.0
1981-08-24 18:26:18.530 ,3,0,0.,12.0,0.,12.0,0.,12.0,0.,12.0
1981-08-24 18:26:30.530 ,2,0,0.,12.0,0.,12.0,0.,12.0,0.,12.0
1981-08-24 18:26:42.530 ,2,0,0.,12.0,0.,12.0,0.,12.0,0.,12.0
1981-08-24 18:26:54.530 ,2,0,0.,12.0,0.,12.0,0.,12.0,0.,12.0
1981-08-24 18:27:06.530 ,2,0,0.,12.0,0.,12.0,0.,12.0,0.,12.0
1981-08-24 18:27:18.530 ,1,0,0.,12.0,0.,12.0,0.,12.0,0.,12.0
1981-08-24 18:27:30.530 ,1,0,0.,12.0,0.,12.0,0.,12.0,0.,12.0
1981-08-24 18:27:42.530 ,1,0,0.,12.0,0.,12.0,0.,12.0,0.,12.0
1981-08-24 18:27:54.530 ,1,0,0.,12.0,0.,12.0,0.,12.0,0.,12.0
1981-08-24 18:28:06.530 ,0,0,0.,12.0,0.,12.0,0.,12.0,0.,12.0
1981-08-24 18:28:18.530 ,0,0,0.,12.0,0.,12.0,0.,12.0,0.,12.0
1981-08-24 18:28:30.530 ,0,0,0.,12.0,0.,12.0,0.,12.0,0.,12.0
1981-08-24 18:28:42.530 ,0,0,0.,12.0,0.,12.0,0.,12.0,0.,12.0
1981-08-24 18:28:54.530 ,0,0,0.,12.0,0.,12.0,0.,12.0,0.,12.0
1981-08-24 18:29:06.530 ,0,0,0.,12.0,0.,12.0,0.,12.0,0.,12.0
1981-08-24 18:29:18.530 ,0,0,0.,12.0,0.,12.0,0.,12.0,0.,12.0
1981-08-24 18:29:30.530 ,0,0,0.,12.0,0.,12.0,0.,12.0,0.,12.0
1981-08-24 18:29:42.530 ,1,0,0.,12.0,0.,12.0,0.,12.0,0.,12.0
1981-08-24 18:29:54.530 ,1,0,0.,12.0,0.,12.0,0.,12.0,0.,12.0
1981-08-24 18:30:06.530 ,1,0,0.,12.0,0.,12.0,0.,12.0,0.,12.0
1981-08-24 18:30:18.530 ,1,0,0.,12.0,0.,12.0,0.,12.0,0.,12.0
1981-08-24 18:30:30.530 ,2,0,0.,12.0,0.,12.0,0.,12.0,0.,12.0
1981-08-24 18:30:42.530 ,2,0,0.,12.0,0.,12.0,0.,12.0,0.,12.0
1981-08-24 18:30:54.530 ,2,0,0.,12.0,0.,12.0,0.,12.0,0.,12.0
1981-08-24 18:31:06.530 ,2,0,0.,12.0,0.,12.0,0.,12.0,0.,12.0
1981-08-24 18:31:18.530 ,3,0,0.,12.0,0.,12.0,0.,12.0,0.,12.0
1981-08-24 18:31:30.530 ,3,0,0.,12.0,0.,12.0,0.,12.0,0.,12.0
1981-08-24 18:31:42.530 ,3,0,0.,12.0,0.,12.0,0.,12.0,0.,12.0
1981-08-24 18:31:54.530 ,3,0,0.,12.0,0.,12.0,0.,12.0,0.,12.0
1981-08-24 18:32:06.530 ,4,0,0.,12.0,0.,12.0,0.,12.0,0.,12.0
1981-08-24 18:32:18.530 ,4,0,0.,12.0,0.,12.0,0.,12.0,0.,12.0
1981-08-24 18:32:30.530 ,4,0,0.,12.0,0.,12.0,0.,12.0,0.,12.0
1981-08-24 18:32:42.530 ,4,0,0.,12.0,0.,12.0,0.,12.0,0.,12.0
1981-08-24 18:32:54.530 ,5,0,0.,12.0,0.,12.0,0.,12.0,0.,12.0
1981-08-24 18:33:06.530 ,5,0,0.,12.0,0.,12.0,0.,12.0,0.,12.0
1981-08-24 18:33:18.530 ,5,0,0.,12.0,0.,12.0,0.,12.0,0.,12.0
1981-08-24 18:33:30.530 ,5,0,0.,12.0,0.,12.0,0.,12.0,0.,12.0
1981-08-24 18:33:42.530 ,6,0,0.,12.0,0.,12.0,0.,12.0,0.,12.0
1981-08-24 18:33:54.530 ,6,0,0.,12.0,0.,12.0,0.,12.0,0.,12.0
1981-08-24 18:34:06.530 ,6,0,0.,12.0,0.,12.0,0.,12.0,0.,12.0
1981-08-24 18:34:18.530 ,6,0,0.,12.0,0.,12.0,0.,12.0,0.,12.0
1981-08-24 18:34:30.530 ,7,0,0.,12.0,0.,12.0,0.,12.0,0.,12.0
1981-08-24 18:34:42.530 ,7,0,0.,12.0,0.,12.0,0.,12.0,0.,12.0
1981-08-24 18:34:54.530 ,7,0,0.,12.0,0.,12.0,0.,12.0,0.,12.0
1981-08-24 18:35:06.530 ,7,0,0.,12.0,0.,12.0,0.,12.0,0.,12.0
1981-08-24 18:35:18.530 ,7,0,0.,12.0,0.,12.0,0.,12.0,0.,12.0
1981-08-24 18:35:30.530 ,7,0,0.,12.0,0.,12.0,0.,12.0,0.,12.0
1981-08-24 18:35:42.530 ,6,0,0.,12.0,0.,12.0,0.,12.0,0.,12.0
1981-08-24 18:35:54.530 ,6,0,0.,12.0,0.,12.0,0.,12.0,0.,12.0
1981-08-24 18:36:06.530 ,5,0,0.,12.0,0.,12.0,0.,12.0,0.,12.0
1981-08-24 18:36:18.530 ,5,0,0.,12.0,0.,12.0,0.,12.0,0.,12.0
1981-08-24 18:36:30.530 ,4,0,0.,12.0,0.,12.0,0.,12.0,0.,12.0
1981-08-24 18:36:42.530 ,4,0,0.,12.0,0.,12.0,0.,12.0,0.,12.0
1981-08-24 18:36:54.530 ,3,0,0.,12.0,0.,12.0,0.,12.0,0.,12.0
1981-08-24 18:37:06.530 ,3,0,0.,12.0,0.,12.0,0.,12.0,0.,12.0
1981-08-24 18:37:18.530 ,2,0,0.,12.0,0.,12.0,0.,12.0,0.,12.0
1981-08-24 18:37:30.530 ,2,0,0.,12.0,0.,12.0,0.,12.0,0.,12.0
1981-08-24 18:37:42.530 ,1,0,0.,12.0,0.,12.0,0.,12.0,0.,12.0
1981-08-24 18:37:54.530 ,1,0,0.,12.0,0.,12.0,0.,12.0,0.,12.0
1981-08-24 18:38:06.530 ,0,0,0.,12.0,0.,12.0,0.,12.0,0.,12.0
1981-08-24 18:38:18.530 ,0,0,0.,12.0,0.,12.0,0.,12.0,0.,12.0
1981-08-24 18:38:30.530 ,0,0,0.,12.0,0.,12.0,0.,12.0,0.,12.0
1981-08-24 18:38:42.530 ,0,0,0.,12.0,0.,12.0,0.,12.0,0.,12.0
1981-08-24 18:38:54.530 ,1,0,0.,12.0,0.,12.0,0.,12.0,0.,12.0
1981-08-24 18:39:06.530 ,1,0,0.,12.0,0.,12.0,0.,12.0,0.,12.0
1981-08-24 18:39:18.530 ,2,0,0.,12.0,0.,12.0,0.,12.0,0.,12.0
1981-08-24 18:39:30.530 ,2,0,0.,12.0,0.,12.0,0.,12.0,0.,12.0
1981-08-24 18:39:42.530 ,3,0,0.,12.0,0.,12.0,0.,12.0,0.,12.0
1981-08-24 18:39:54.530 ,3,0,0.,12.0,0.,12.0,0.,12.0,0.,12.0
1981-08-24 18:40:06.530 ,4,0,0.,12.0,0.,12.0,0.,12.0,0.,12.0
1981-08-24 18:40:18.530 ,4,0,0.,12.0,0.,12.0,0.,12.0,0.,12.0
1981-08-24 18:40:30.530 ,5,0,0.,12.0,0.,12.0,0.,12.0,0.,12.0
1981-08-24 18:40:42.530 ,5,0,0.,12.0,0.,12.0,0.,12.0,0.,12.0
1981-08-24 18:40:54.530 ,6,0,0.,12.0,0.,12.0,0.,12.0,0.,12.0
1981-08-24 18:41:06.530 ,6,0,0.,12.0,0.,12.0,0.,12.0,0.,12.0
1981-08-24 18:41:18.530 ,7,0,0.,12.0,0.,12.0,0.,12.0,0.,12.0
1981-08-24 18:41:30.530 ,7,0,0.,12.0,0.,12.0,0.,12.0,0.,12.0
1981-08-24 18:41:42.530 ,7,0,0.,12.0,0.,12.0,0.,12.0,0.,12.0
1981-08-24 18:41:54.530 ,7,0,0.,12.0,0.,12.0,0.,12.0,0.,12.0
1981-08-24 18:42:06.530 ,7,0,0.,12.0,0.,12.0,0.,12.0,0.,12.0
1981-08-24 18:42:18.530 ,7,0,0.,12.0,0.,12.0,0.,12.0,0.,12.0
1981-08-24 18:42:30.530 ,6,0,0.,12.0,0.,12.0,0.,12.0,0.,12.0
1981-08-24 18:42:42.530 ,6,0,0.,12.0,0.,12.0,0.,12.0,0.,12.0
1981-08-24 18:42:54.530 ,6,0,0.,12.0,0.,12.0,0.,12.0,0.,12.0
1981-08-24 18:43:06.530 ,6,0,0.,12.0,0.,12.0,0.,12.0,0.,12.0
1981-08-24 18:43:18.530 ,5,0,0.,12.0,0.,12.0,0.,12.0,0.,12.0
1981-08-24 18:43:30.530 ,5,0,0.,12.0,0.,12.0,0.,12.0,0.,12.0
1981-08-24 18:43:42.530 ,5,0,0.,12.0,0.,12.0,0.,12.0,0.,12.0
1981-08-24 18:43:54.530 ,5,0,0.,12.0,0.,12.0,0.,12.0,0.,12.0
1981-08-24 18:44:06.530 ,4,0,0.,12.0,0.,12.0,0.,12.0,0.,12.0
1981-08-24 18:44:18.530 ,4,0,0.,12.0,0.,12.0,0.,12.0,0.,12.0
1981-08-24 18:44:30.530 ,4,0,0.,12.0,0.,12.0,0.,12.0,0.,12.0
1981-08-24 18:44:42.530 ,4,0,0.,12.0,0.,12.0,0.,12.0,0.,12.0
1981-08-24 18:44:54.530 ,3,0,0.,12.0,0.,12.0,0.,12.0,0.,12.0
1981-08-24 18:45:06.530 ,3,0,0.,12.0,0.,12.0,0.,12.0,0.,12.0
1981-08-24 18:45:18.530 ,3,0,0.,12.0,0.,12.0,0.,12.0,0.,12.0
1981-08-24 18:45:30.530 ,3,0,0.,12.0,0.,12.0,0.,12.0,0.,12.0
1981-08-24 18:45:42.530 ,2,0,0.,12.0,0.,12.0,0.,12.0,0.,12.0
1981-08-24 18:45:54.530 ,2,0,0.,12.0,0.,12.0,0.,12.0,0.,12.0
1981-08-24 18:46:06.530 ,2,0,0.,12.0,0.,12.0,0.,12.0,0.,12.0
1981-08-24 18:46:18.530 ,2,0,0.,12.0,0.,12.0,0.,12.0,0.,12.0
1981-08-24 18:46:30.530 ,1,0,0.,12.0,0.,12.0,0.,12.0,0.,12.0
1981-08-24 18:46:42.530 ,1,0,0.,12.0,0.,12.0,0.,12.0,0.,12.0
1981-08-24 18:46:54.530 ,1,0,0.,12.0,0.,12.0,0.,12.0,0.,12.0
1981-08-24 18:47:06.530 ,1,0,0.,12.0,0.,12.0,0.,12.0,0.,12.0
1981-08-24 18:47:18.530 ,0,0,0.,12.0,0.,12.0,0.,12.0,0.,12.0
1981-08-24 18:47:30.530 ,0,0,0.,12.0,0.,12.0,0.,12.0,0.,12.0
1981-08-24 18:47:42.530 ,0,0,0.,12.0,0.,12.0,0.,12.0,0.,12.0
1981-08-24 18:47:54.530 ,0,0,0.,12.0,0.,12.0,0.,12.0,0.,12.0
1981-08-24 18:48:06.530 ,0,0,0.,12.0,0.,12.0,0.,12.0,0.,12.0
1981-08-24 18:48:18.530 ,0,0,0.,12.0,0.,12.0,0.,12.0,0.,12.0
1981-08-24 18:48:30.530 ,0,0,0.,12.0,0.,12.0,0.,12.0,0.,12.0
1981-08-24 18:48:42.530 ,0,0,0.,12.0,0.,12.0,0.,12.0,0.,12.0
1981-08-24 18:48:54.530 ,1,0,0.,12.0,0.,12.0,0.,12.0,0.,12.0
1981-08-24 18:49:06.530 ,1,0,0.,12.0,0.,12.0,0.,12.0,0.,12.0
1981-08-24 18:49:18.530 ,1,0,0.,12.0,0.,12.0,0.,12.0,0.,12.0
1981-08-24 18:49:30.530 ,1,0,0.,12.0,0.,12.0,0.,12.0,0.,12.0
1981-08-24 18:49:42.530 ,2,0,0.,12.0,0.,12.0,0.,12.0,0.,12.0
1981-08-24 18:49:54.530 ,2,0,0.,12.0,0.,12.0,0.,12.0,0.,12.0
1981-08-24 18:50:06.530 ,2,0,0.,12.0,0.,12.0,0.,12.0,0.,12.0
1981-08-24 18:50:18.530 ,2,0,0.,12.0,0.,12.0,0.,12.0,0.,12.0
1981-08-24 18:50:30.530 ,3,0,0.,12.0,0.,12.0,0.,12.0,0.,12.0
1981-08-24 18:50:42.530 ,3,0,0.,12.0,0.,12.0,0.,12.0,0.,12.0
1981-08-24 18:50:54.530 ,3,0,0.,12.0,0.,12.0,0.,12.0,0.,12.0
1981-08-24 18:51:06.530 ,3,0,0.,12.0,0.,12.0,0.,12.0,0.,12.0
1981-08-24 18:51:18.530 ,4,0,0.,12.0,0.,12.0,0.,12.0,0.,12.0
1981-08-24 18:51:30.530 ,4,0,0.,12.0,0.,12.0,0.,12.0,0.,12.0
1981-08-24 18:51:42.530 ,4,0,0.,12.0,0.,12.0,0.,12.0,0.,12.0
1981-08-24 18:51:54.530 ,4,0,0.,12.0,0.,12.0,0.,12.0,0.,12.0
1981-08-24 18:52:06.530 ,5,0,0.,12.0,0.,12.0,0.,12.0,0.,12.0
1981-08-24 18:52:18.530 ,5,0,0.,12.0,0.,12.0,0.,12.0,0.,12.0
1981-08-24 18:52:30.530 ,5,0,0.,12.0,0.,12.0,0.,12.0,0.,12.0
1981-08-24 18:52:42.530 ,5,0,0.,12.0,0.,12.0,0.,12.0,0.,12.0
1981-08-24 18:52:54.530 ,6,0,0.,12.0,0.,12.0,0.,12.0,0.,12.0
1981-08-24 18:53:06.530 ,6,0,0.,12.0,0.,12.0,0.,12.0,0.,12.0
1981-08-24 18:53:18.530 ,6,0,0.,12.0,0.,12.0,0.,12.0,0.,12.0
1981-08-24 18:53:30.530 ,6,0,0.,12.0,0.,12.0,0.,12.0,0.,12.0
1981-08-24 18:53:42.530 ,7,0,0.,12.0,0.,12.0,0.,12.0,0.,12.0
1981-08-24 18:53:54.530 ,7,0,0.,12.0,0.,12.0,0.,12.0,0.,12.0
1981-08-24 18:54:06.530 ,7,0,0.,12.0,0.,12.0,0.,12.0,0.,12.0
1981-08-24 18:54:18.530 ,7,0,0.,12.0,0.,12.0,0.,12.0,0.,12.0
1981-08-24 18:54:30.530 ,7,0,0.,12.0,0.,12.0,0.,12.0,0.,12.0
1981-08-24 18:54:42.530 ,7,0,0.,12.0,0.,12.0,0.,12.0,0.,12.0
1981-08-24 18:54:54.530 ,6,0,0.,12.0,0.,12.0,0.,12.0,0.,12.0
1981-08-24 18:55:06.530 ,6,0,0.,12.0,0.,12.0,0.,12.0,0.,12.0
1981-08-24 18:55:18.530 ,5,0,0.,12.0,0.,12.0,0.,12.0,0.,12.0
1981-08-24 18:55:30.530 ,5,0,0.,12.0,0.,12.0,0.,12.0,0.,12.0
1981-08-24 18:55:42.530 ,4,0,0.,12.0,0.,12.0,0.,12.0,0.,12.0
1981-08-24 18:55:54.530 ,4,0,0.,12.0,0.,12.0,0.,12.0,0.,12.0
1981-08-24 18:56:06.530 ,3,0,0.,12.0,0.,12.0,0.,12.0,0.,12.0
1981-08-24 18:56:18.530 ,3,0,0.,12.0,0.,12.0,0.,12.0,0.,12.0
1981-08-24 18:56:30.530 ,2,0,0.,12.0,0.,12.0,0.,12.0,0.,12.0
1981-08-24 18:56:42.530 ,2,0,0.,12.0,0.,12.0,0.,12.0,0.,12.0
1981-08-24 18:56:54.530 ,1,0,0.,12.0,0.,12.0,0.,12.0,0.,12.0
1981-08-24 18:57:06.530 ,1,0,0.,12.0,0.,12.0,0.,12.0,0.,12.0
1981-08-24 18:57:18.530 ,0,0,0.,12.0,0.,12.0,0.,12.0,0.,12.0
1981-08-24 18:57:30.530 ,0,0,0.,12.0,0.,12.0,0.,12.0,0.,12.0
1981-08-24 18:57:42.530 ,0,0,0.,12.0,0.,12.0,0.,12.0,0.,12.0
1981-08-24 18:57:54.530 ,0,0,0.,12.0,0.,12.0,0.,12.0,0.,12.0
1981-08-24 18:58:06.530 ,1,0,0.,12.0,0.,12.0,0.,12.0,0.,12.0
1981-08-24 18:58:18.530 ,1,0,0.,12.0,0.,12.0,0.,12.0,0.,12.0
1981-08-24 18:58:30.530 ,2,0,0.,12.0,0.,12.0,0.,12.0,0.,12.0
1981-08-24 18:58:42.530 ,2,0,0.,12.0,0.,12.0,0.,12.0,0.,12.0
1981-08-24 18:58:54.530 ,3,0,0.,12.0,0.,12.0,0.,12.0,0.,12.0
1981-08-24 18:59:06.530 ,3,0,0.,12.0,0.,12.0,0.,12.0,0.,12.0
1981-08-24 18:59:18.530 ,4,0,0.,12.0,0.,12.0,0.,12.0,0.,12.0
1981-08-24 18:59:30.530 ,4,0,0.,12.0,0.,12.0,0.,12.0,0.,12.0
1981-08-24 18:59:42.530 ,5,0,0.,12.0,0.,12.0,0.,12.0,0.,12.0
1981-08-24 18:59:54.530 ,5,0,0.,12.0,0.,12.0,0.,12.0,0.,12.0
1981-08-24 19:00:06.530 ,6,0,0.,12.0,0.,12.0,0.,12.0,0.,12.0
1981-08-24 19:00:18.530 ,6,0,0.,12.0,0.,12.0,0.,12.0,0.,12.0
1981-08-24 19:00:30.530 ,7,0,0.,12.0,0.,12.0,0.,12.0,0.,12.0
1981-08-24 19:00:42.530 ,7,0,0.,12.0,0.,12.0,0.,12.0,0.,12.0
1981-08-24 19:00:54.530 ,7,0,0.,12.0,0.,12.0,0.,12.0,0.,12.0
1981-08-24 19:01:06.530 ,7,0,0.,12.0,0.,12.0,0.,12.0,0.,12.0
1981-08-24 19:01:18.530 ,7,0,0.,12.0,0.,12.0,0.,12.0,0.,12.0
1981-08-24 19:01:30.530 ,7,0,0.,12.0,0.,12.0,0.,12.0,0.,12.0
1981-08-24 19:01:42.530 ,6,0,0.,12.0,0.,12.0,0.,12.0,0.,12.0
1981-08-24 19:01:54.530 ,6,0,0.,12.0,0.,12.0,0.,12.0,0.,12.0
1981-08-24 19:02:06.530 ,6,0,0.,12.0,0.,12.0,0.,12.0,0.,12.0
1981-08-24 19:02:18.530 ,6,0,0.,12.0,0.,12.0,0.,12.0,0.,12.0
1981-08-24 19:02:30.530 ,5,0,0.,12.0,0.,12.0,0.,12.0,0.,12.0
1981-08-24 19:02:42.530 ,5,0,0.,12.0,0.,12.0,0.,12.0,0.,12.0
1981-08-24 19:02:54.530 ,5,0,0.,12.0,0.,12.0,0.,12.0,0.,12.0
1981-08-24 19:03:06.530 ,5,0,0.,12.0,0.,12.0,0.,12.0,0.,12.0
1981-08-24 19:03:18.530 ,4,0,0.,12.0,0.,12.0,0.,12.0,0.,12.0
1981-08-24 19:03:30.530 ,4,0,0.,12.0,0.,12.0,0.,12.0,0.,12.0
1981-08-24 19:03:42.530 ,4,0,0.,12.0,0.,12.0,0.,12.0,0.,12.0
1981-08-24 19:03:54.530 ,4,0,0.,12.0,0.,12.0,0.,12.0,0.,12.0
1981-08-24 19:04:06.530 ,3,0,0.,12.0,0.,12.0,0.,12.0,0.,12.0
1981-08-24 19:04:18.530 ,3,0,0.,12.0,0.,12.0,0.,12.0,0.,12.0
1981-08-24 19:04:30.530 ,3,0,0.,12.0,0.,12.0,0.,12.0,0.,12.0
1981-08-24 19:04:42.530 ,3,0,0.,12.0,0.,12.0,0.,12.0,0.,12.0
1981-08-24 19:04:54.530 ,2,0,0.,12.0,0.,12.0,0.,12.0,0.,12.0
1981-08-24 19:05:06.530 ,2,0,0.,12.0,0.,12.0,0.,12.0,0.,12.0
1981-08-24 19:05:18.530 ,2,0,0.,12.0,0.,12.0,0.,12.0,0.,12.0
1981-08-24 19:05:30.530 ,2,0,0.,12.0,0.,12.0,0.,12.0,0.,12.0
1981-08-24 19:05:42.530 ,1,0,0.,12.0,0.,12.0,0.,12.0,0.,12.0
1981-08-24 19:05:54.530 ,1,0,0.,12.0,0.,12.0,0.,12.0,0.,12.0
1981-08-24 19:06:06.530 ,1,0,0.,12.0,0.,12.0,0.,12.0,0.,12.0
1981-08-24 19:06:18.530 ,1,0,0.,12.0,0.,12.0,0.,12.0,0.,12.0
1981-08-24 19:06:30.530 ,0,0,0.,12.0,0.,12.0,0.,12.0,0.,12.0
1981-08-24 19:06:42.530 ,0,0,0.,12.0,0.,12.0,0.,12.0,0.,12.0
1981-08-24 19:06:54.530 ,0,0,0.,12.0,0.,12.0,0.,12.0,0.,12.0
1981-08-24 19:07:06.530 ,0,0,0.,12.0,0.,12.0,0.,12.0,0.,12.0
1981-08-24 19:07:18.530 ,0,0,0.,12.0,0.,12.0,0.,12.0,0.,12.0
1981-08-24 19:07:30.530 ,0,0,0.,12.0,0.,12.0,0.,12.0,0.,12.0
1981-08-24 19:07:42.530 ,0,0,0.,12.0,0.,12.0,0.,12.0,0.,12.0
1981-08-24 19:07:54.530 ,0,0,0.,12.0,0.,12.0,0.,12.0,0.,12.0
1981-08-24 19:08:06.530 ,1,0,0.,12.0,0.,12.0,0.,12.0,0.,12.0
1981-08-24 19:08:18.530 ,1,0,0.,12.0,0.,12.0,0.,12.0,0.,12.0
1981-08-24 19:08:30.530 ,1,0,0.,12.0,0.,12.0,0.,12.0,0.,12.0
1981-08-24 19:08:42.530 ,1,0,0.,12.0,0.,12.0,0.,12.0,0.,12.0
1981-08-24 19:08:54.530 ,2,0,0.,12.0,0.,12.0,0.,12.0,0.,12.0
1981-08-24 19:09:06.530 ,2,0,0.,12.0,0.,12.0,0.,12.0,0.,12.0
1981-08-24 19:09:18.530 ,2,0,0.,12.0,0.,12.0,0.,12.0,0.,12.0
1981-08-24 19:09:30.530 ,2,0,0.,12.0,0.,12.0,0.,12.0,0.,12.0
1981-08-24 19:09:42.530 ,3,0,0.,12.0,0.,12.0,0.,12.0,0.,12.0
1981-08-24 19:09:54.530 ,3,0,0.,12.0,0.,12.0,0.,12.0,0.,12.0
1981-08-24 19:10:06.530 ,3,0,0.,12.0,0.,12.0,0.,12.0,0.,12.0
1981-08-24 19:10:18.530 ,3,0,0.,12.0,0.,12.0,0.,12.0,0.,12.0
1981-08-24 19:10:30.530 ,4,0,0.,12.0,0.,12.0,0.,12.0,0.,12.0
1981-08-24 19:10:42.530 ,4,0,0.,12.0,0.,12.0,0.,12.0,0.,12.0
1981-08-24 19:10:54.530 ,4,0,0.,12.0,0.,12.0,0.,12.0,0.,12.0
1981-08-24 19:11:06.530 ,4,0,0.,12.0,0.,12.0,0.,12.0,0.,12.0
1981-08-24 19:11:18.530 ,5,0,0.,12.0,0.,12.0,0.,12.0,0.,12.0
1981-08-24 19:11:30.530 ,5,0,0.,12.0,0.,12.0,0.,12.0,0.,12.0
1981-08-24 19:11:42.530 ,5,0,0.,12.0,0.,12.0,0.,12.0,0.,12.0
1981-08-24 19:11:54.530 ,5,0,0.,12.0,0.,12.0,0.,12.0,0.,12.0
1981-08-24 19:12:06.530 ,6,0,0.,12.0,0.,12.0,0.,12.0,0.,12.0
1981-08-24 19:12:18.530 ,6,0,0.,12.0,0.,12.0,0.,12.0,0.,12.0
1981-08-24 19:12:30.530 ,6,0,0.,12.0,0.,12.0,0.,12.0,0.,12.0
1981-08-24 19:12:42.530 ,6,0,0.,12.0,0.,12.0,0.,12.0,0.,12.0
1981-08-24 19:12:54.530 ,7,0,0.,12.0,0.,12.0,0.,12.0,0.,12.0
1981-08-24 19:13:06.530 ,7,0,0.,12.0,0.,12.0,0.,12.0,0.,12.0
1981-08-24 19:13:18.530 ,7,0,0.,12.0,0.,12.0,0.,12.0,0.,12.0
1981-08-24 19:13:30.530 ,7,0,0.,12.0,0.,12.0,0.,12.0,0.,12.0
1981-08-24 19:13:42.530 ,7,0,0.,12.0,0.,12.0,0.,12.0,0.,12.0
1981-08-24 19:13:54.530 ,7,0,0.,12.0,0.,12.0,0.,12.0,0.,12.0
1981-08-24 19:14:06.530 ,6,0,0.,12.0,0.,12.0,0.,12.0,0.,12.0
1981-08-24 19:14:18.530 ,6,0,0.,12.0,0.,12.0,0.,12.0,0.,12.0
1981-08-24 19:14:30.530 ,5,0,0.,12.0,0.,12.0,0.,12.0,0.,12.0
1981-08-24 19:14:42.530 ,5,0,0.,12.0,0.,12.0,0.,12.0,0.,12.0
1981-08-24 19:14:54.530 ,4,0,0.,12.0,0.,12.0,0.,12.0,0.,12.0
1981-08-24 19:15:06.530 ,4,0,0.,12.0,0.,12.0,0.,12.0,0.,12.0
1981-08-24 19:15:18.530 ,3,0,0.,12.0,0.,12.0,0.,12.0,0.,12.0
1981-08-24 19:15:30.530 ,3,0,0.,12.0,0.,12.0,0.,12.0,0.,12.0
1981-08-24 19:15:42.530 ,2,0,0.,12.0,0.,12.0,0.,12.0,0.,12.0
1981-08-24 19:15:54.530 ,2,0,0.,12.0,0.,12.0,0.,12.0,0.,12.0
1981-08-24 19:16:06.530 ,1,0,0.,12.0,0.,12.0,0.,12.0,0.,12.0
1981-08-24 19:16:18.530 ,1,0,0.,12.0,0.,12.0,0.,12.0,0.,12.0
1981-08-24 19:16:30.530 ,0,0,0.,12.0,0.,12.0,0.,12.0,0.,12.0
1981-08-24 19:16:42.530 ,0,0,0.,12.0,0.,12.0,0.,12.0,0.,12.0
1981-08-24 19:16:54.530 ,0,0,0.,12.0,0.,12.0,0.,12.0,0.,12.0
1981-08-24 19:17:06.530 ,0,0,0.,12.0,0.,12.0,0.,12.0,0.,12.0
1981-08-24 19:17:18.530 ,1,0,0.,12.0,0.,12.0,0.,12.0,0.,12.0
1981-08-24 19:17:30.530 ,1,0,0.,12.0,0.,12.0,0.,12.0,0.,12.0